���t,����,�O�C���x,�����t���O,�O�C���Ύ��x,�����t���O,���ԉ��x,�����t���O,���ԑ��Ύ��x,�����t���O,�g�C������,�����t���O,�L�b�`�����x,�����t���O,��󒲎����x,�����t���O
2003/3/1,0:00,12.1,0,60,0,19.1,0,54,0,12.6,0,18.3,0,13.9,0
2003/3/1,0:15,11.8,0,66,0,19,0,53.5,0,12.7,0,18.3,0,13.9,0
2003/3/1,0:30,11.4,0,71,0,19,0,53.4,0,12.9,0,18.3,0,13.9,0
2003/3/1,0:45,11.4,0,71,0,18.9,0,53.2,0,13.1,0,18.2,0,13.9,0
2003/3/1,1:00,11.2,0,73,0,18.9,0,53.1,0,13.2,0,18.2,0,13.9,0
2003/3/1,1:15,11.5,0,70,0,18.8,0,52.9,0,13.3,0,18.2,0,13.9,0
2003/3/1,1:30,11.4,0,69,0,18.8,0,52.9,0,13.5,0,18.2,0,14,0
2003/3/1,1:45,11.5,0,67,0,18.7,0,53.2,0,13.6,0,18.1,0,14.1,0
2003/3/1,2:00,11.5,0,70,0,18.7,0,52.7,0,13.7,0,18.1,0,14.1,0
2003/3/1,2:15,11.7,0,67,0,18.6,0,52.7,0,13.8,0,18.1,0,14.1,0
2003/3/1,2:30,11.5,0,71,0,18.6,0,52.6,0,13.9,0,18.1,0,14.1,0
2003/3/1,2:45,11.4,0,71,0,18.5,0,53,0,14,0,18,0,14.1,0
2003/3/1,3:00,11.1,0,75,0,18.5,0,54.1,0,14.1,0,18,0,14.2,0
2003/3/1,3:15,10.6,0,83,0,18.4,0,53.9,0,14.2,0,18,0,14.1,0
2003/3/1,3:30,10.3,0,87,0,18.4,0,54,0,14.2,0,18,0,14.1,0
2003/3/1,3:45,10.1,0,89,0,18.4,0,53.5,0,14.3,0,17.9,0,14.1,0
2003/3/1,4:00,10,0,92,0,18.3,0,53.3,0,14.4,0,17.9,0,14.1,0
2003/3/1,4:15,9.9,0,95,0,18.3,0,53.6,0,14.5,0,17.9,0,14.1,0
2003/3/1,4:30,9.8,0,96,0,18.2,0,53.6,0,14.5,0,17.8,0,14.1,0
2003/3/1,4:45,9.8,0,95,0,18.2,0,53.5,0,14.6,0,17.8,0,14.1,0
2003/3/1,5:00,9.8,0,96,0,18.2,0,53.6,0,14.7,0,17.8,0,14,0
2003/3/1,5:15,9.8,0,96,0,18.1,0,53.6,0,14.8,0,17.7,0,14,0
2003/3/1,5:30,10,0,97,0,18.1,0,53.7,0,14.8,0,17.7,0,14,0
2003/3/1,5:45,9.9,0,97,0,18,0,53.8,0,14.9,0,17.6,0,14,0
2003/3/1,6:00,10.1,0,98,0,18,0,53.8,0,14.9,0,17.6,0,14,0
2003/3/1,6:15,10.1,0,98,0,18,0,54.2,0,13.3,0,17.6,0,14,0
2003/3/1,6:30,10.1,0,98,0,18.1,0,55,0,13.4,0,17.6,0,14,0
2003/3/1,6:45,10.4,0,97,0,18.1,0,54.3,0,13.6,0,17.6,0,14,0
2003/3/1,7:00,10.6,0,97,0,18.1,0,54.1,0,13.7,0,17.5,0,14,0
2003/3/1,7:15,11,0,96,0,18.1,0,54.1,0,13.8,0,17.5,0,14,0
2003/3/1,7:30,11.3,0,95,0,18.1,0,54.2,0,14,0,17.5,0,14,0
2003/3/1,7:45,12,0,94,0,18.1,0,54.4,0,14.1,0,17.4,0,14,0
2003/3/1,8:00,11.8,0,93,0,18,0,59.2,0,14.2,0,17.3,0,14,0
2003/3/1,8:15,11.4,0,98,0,17.9,0,59.2,0,14.3,0,17.2,0,14,0
2003/3/1,8:30,11.4,0,99,0,17.8,0,58.3,0,14.4,0,17.2,0,14,0
2003/3/1,8:45,11.3,0,99,0,18,0,62,0,14.5,0,17.5,0,14,0
2003/3/1,9:00,11.6,0,99,0,17.9,0,61.5,0,14.6,0,17.5,0,14.1,0
2003/3/1,9:15,12.1,0,97,0,18.1,0,62.8,0,14.7,0,17.6,0,14.1,0
2003/3/1,9:30,12.8,0,93,0,18,0,61.7,0,13.7,0,17.6,0,14.1,0
2003/3/1,9:45,13,0,92,0,18,0,62.4,0,13,0,17.5,0,14.2,0
2003/3/1,10:00,13.1,0,91,0,18,0,62.7,0,13.3,0,17.4,0,14.2,0
2003/3/1,10:15,12.1,0,95,0,18.2,0,63.5,0,13.4,0,17.6,0,14.3,0
2003/3/1,10:30,12.1,0,99,0,18.4,0,70.6,0,13.6,0,17.9,0,14.4,0
2003/3/1,10:45,12.3,0,99,0,18.6,0,71.2,0,13.8,0,18.1,0,14.5,0
2003/3/1,11:00,12.2,0,99,0,18.7,0,71.2,0,13.9,0,18.2,0,14.5,0
2003/3/1,11:15,12.3,0,99,0,18.7,0,70.9,0,14,0,18.3,0,14.6,0
2003/3/1,11:30,12.3,0,99,0,18.7,0,70.4,0,12.7,0,18.4,0,14.6,0
2003/3/1,11:45,12.3,0,99,0,18.7,0,67.5,0,12.9,0,18.3,0,14.6,0
2003/3/1,12:00,12.4,0,99,0,18.7,0,65.2,0,13,0,18.2,0,14.5,0
2003/3/1,12:15,12.4,0,99,0,18.6,0,64.8,0,13.2,0,18.1,0,14.5,0
2003/3/1,12:30,12.2,0,99,0,18.7,0,65.9,0,13.4,0,18.3,0,14.6,0
2003/3/1,12:45,12.3,0,99,0,18.7,0,66.4,0,13.5,0,18.3,0,14.8,0
2003/3/1,13:00,12.6,0,99,0,18.7,0,66.3,0,13.7,0,18.3,0,14.9,0
2003/3/1,13:15,12.6,0,99,0,18.7,0,64.8,0,12.3,0,18.2,0,15.2,0
2003/3/1,13:30,12.6,0,99,0,18.7,0,64.2,0,12.6,0,18.2,0,15.2,0
2003/3/1,13:45,12.4,0,99,0,18.8,0,68.6,0,12.8,0,18.5,0,15.2,0
2003/3/1,14:00,12.5,0,99,0,19,0,72.1,0,12.5,0,18.7,0,15.1,0
2003/3/1,14:15,11.8,0,98,0,19,0,70.1,0,12.8,0,18.7,0,15,0
2003/3/1,14:30,11.5,0,96,0,19.1,0,68,0,12.6,0,18.7,0,15,0
2003/3/1,14:45,11.1,0,95,0,19.1,0,66.3,0,13.3,0,18.7,0,14.9,0
2003/3/1,15:00,11,0,95,0,19.1,0,66.2,0,13.5,0,18.7,0,14.9,0
2003/3/1,15:15,10.9,0,94,0,19.2,0,66.3,0,13.7,0,18.7,0,14.8,0
2003/3/1,15:30,10.8,0,93,0,19.3,0,69.4,0,13.8,0,18.7,0,14.8,0
2003/3/1,15:45,11,0,94,0,19.4,0,68.2,0,12.7,0,18.8,0,14.8,0
2003/3/1,16:00,11.1,0,92,0,19.4,0,68,0,12.9,0,18.9,0,14.7,0
2003/3/1,16:15,11,0,91,0,19.5,0,67.3,0,13.1,0,19,0,14.7,0
2003/3/1,16:30,11,0,91,0,19.5,0,66.4,0,13,0,19,0,14.7,0
2003/3/1,16:45,11,0,89,0,19.6,0,66.1,0,12.8,0,19.1,0,14.7,0
2003/3/1,17:00,10.8,0,88,0,19.6,0,69.1,0,13,0,19.1,0,14.7,0
2003/3/1,17:15,10.8,0,87,0,19.8,0,69.8,0,13.2,0,19.1,0,14.7,0
2003/3/1,17:30,10.9,0,84,0,19.9,0,70.2,0,13.4,0,19.2,0,14.7,0
2003/3/1,17:45,10.8,0,85,0,19.9,0,68.3,0,13.6,0,19.2,0,14.7,0
2003/3/1,18:00,10.8,0,85,0,20,0,68,0,13.7,0,19.2,0,14.6,0
2003/3/1,18:15,10.8,0,85,0,20,0,67.4,0,12.8,0,19.3,0,14.6,0
2003/3/1,18:30,10.7,0,85,0,20.1,0,67,0,13,0,19.3,0,14.6,0
2003/3/1,18:45,10.5,0,86,0,19.7,0,61.7,0,12.6,0,19.3,0,14.6,0
2003/3/1,19:00,10.2,0,89,0,19.5,0,57.7,0,12.7,0,19.1,0,14.6,0
2003/3/1,19:15,10.1,0,90,0,19.6,0,56.4,0,12.9,0,19,0,14.5,0
2003/3/1,19:30,10.1,0,90,0,19.6,0,57.1,0,13.1,0,19,0,14.5,0
2003/3/1,19:45,10.1,0,89,0,19.7,0,59,0,13.2,0,19.1,0,14.5,0
2003/3/1,20:00,10,0,90,0,19.5,0,57,0,13.4,0,18.9,0,14.4,0
2003/3/1,20:15,9.9,0,91,0,19.5,0,57.4,0,13.6,0,18.9,0,14.4,0
2003/3/1,20:30,10.1,0,88,0,19.5,0,56.9,0,13.7,0,18.8,0,14.4,0
2003/3/1,20:45,10.1,0,83,0,19.3,0,56.4,0,12.9,0,18.7,0,14.4,0
2003/3/1,21:00,10.1,0,82,0,19.5,0,56.9,0,13.2,0,18.8,0,14.4,0
2003/3/1,21:15,10.1,0,77,0,19.3,0,58,0,13.4,0,18.7,0,14.4,0
2003/3/1,21:30,10.1,0,72,0,19.2,0,58.8,0,13.5,0,18.5,0,14.4,0
2003/3/1,21:45,10.1,0,72,0,19.3,0,58.1,0,13.6,0,18.6,0,14.4,0
2003/3/1,22:00,10,0,68,0,19.2,0,61.4,0,13.8,0,18.5,0,14.4,0
2003/3/1,22:15,10.1,0,63,0,19.5,0,61.7,0,13.9,0,18.7,0,14.4,0
2003/3/1,22:30,9.9,0,69,0,19.5,0,60.6,0,14,0,18.7,0,14.4,0
2003/3/1,22:45,9.8,0,73,0,19.6,0,59.1,0,14.1,0,18.6,0,14.4,0
2003/3/1,23:00,9.8,0,70,0,20,0,60.1,0,14.2,0,19,0,14.4,0
2003/3/1,23:15,10.1,0,67,0,19.9,0,59.9,0,14.3,0,19.1,0,14.4,0
2003/3/1,23:30,10.1,0,68,0,19.5,0,58.6,0,13.3,0,18.8,0,14.3,0
2003/3/1,23:45,10.1,0,65,0,19.6,0,60,0,13.6,0,18.7,0,14.3,0
2003/3/2,0:00,10.3,0,66,0,19.5,0,60.5,0,13.7,0,18.6,0,14.3,0
2003/3/2,0:15,10.3,0,66,0,19.4,0,59.5,0,13.8,0,18.5,0,14.3,0
2003/3/2,0:30,10.4,0,67,0,19.3,0,58.3,0,14,0,18.4,0,14.3,0
2003/3/2,0:45,10.2,0,68,0,19.2,0,58.4,0,13,0,18.4,0,14.3,0
2003/3/2,1:00,10.3,0,67,0,19.1,0,60.5,0,13.2,0,18.4,0,14.3,0
2003/3/2,1:15,10.2,0,68,0,19,0,62,0,13.4,0,18.4,0,14.3,0
2003/3/2,1:30,9.9,0,69,0,18.9,0,63.3,0,13.5,0,18.3,0,14.3,0
2003/3/2,1:45,9.7,0,70,0,18.8,0,64.3,0,13.7,0,18.3,0,14.3,0
2003/3/2,2:00,9.8,0,64,0,18.9,0,71.7,0,13.8,0,18.4,0,14.4,0
2003/3/2,2:15,9.6,0,61,0,18.8,0,73,0,13.9,0,18.4,0,14.4,0
2003/3/2,2:30,9.4,0,63,0,18.8,0,73,0,14,0,18.4,0,14.4,0
2003/3/2,2:45,8.7,0,67,0,18.8,0,72.2,0,14.1,0,18.4,0,14.4,0
2003/3/2,3:00,8.5,0,70,0,18.7,0,71.6,0,14.2,0,18.4,0,14.4,0
2003/3/2,3:15,7.7,0,79,0,18.6,0,71.7,0,14.3,0,18.3,0,14.4,0
2003/3/2,3:30,7.5,0,82,0,18.6,0,70.7,0,14.4,0,18.2,0,14.3,0
2003/3/2,3:45,7.5,0,82,0,18.5,0,70.7,0,14.5,0,18.2,0,14.3,0
2003/3/2,4:00,7.6,0,81,0,18.5,0,70.3,0,14.5,0,18.1,0,14.3,0
2003/3/2,4:15,7.6,0,79,0,18.4,0,70.3,0,14.6,0,18.1,0,14.3,0
2003/3/2,4:30,7.5,0,78,0,18.3,0,70.1,0,14.7,0,18,0,14.3,0
2003/3/2,4:45,7.5,0,79,0,18.3,0,70.2,0,14.8,0,18,0,14.2,0
2003/3/2,5:00,7.4,0,79,0,18.2,0,70.2,0,14.8,0,17.9,0,14.2,0
2003/3/2,5:15,7.4,0,81,0,18.1,0,70.1,0,14.9,0,17.9,0,14.2,0
2003/3/2,5:30,7.2,0,82,0,18.1,0,70,0,15,0,17.8,0,14.2,0
2003/3/2,5:45,6.9,0,83,0,18,0,70,0,15.1,0,17.8,0,14.2,0
2003/3/2,6:00,6.9,0,85,0,17.9,0,69.9,0,15.1,0,17.7,0,14.1,0
2003/3/2,6:15,7,0,84,0,17.9,0,70.3,0,15.2,0,17.7,0,14.1,0
2003/3/2,6:30,7.2,0,84,0,17.9,0,70.3,0,13,0,17.7,0,14.1,0
2003/3/2,6:45,6.9,0,85,0,18,0,70.9,0,13.1,0,17.7,0,14.1,0
2003/3/2,7:00,6.4,0,88,0,18,0,70.6,0,13.3,0,17.7,0,14,0
2003/3/2,7:15,6.4,0,90,0,18.1,0,70.7,0,13.4,0,17.7,0,14,0
2003/3/2,7:30,6.5,0,89,0,18.1,0,70.6,0,13.6,0,17.7,0,14,0
2003/3/2,7:45,6.9,0,89,0,18.2,0,70.8,0,13.7,0,17.7,0,13.9,0
2003/3/2,8:00,8,0,85,0,18.2,0,70.6,0,13.8,0,17.7,0,13.9,0
2003/3/2,8:15,9.5,0,79,0,18.3,0,70.5,0,13.9,0,17.7,0,13.9,0
2003/3/2,8:30,11.1,0,73,0,18.3,0,71.1,0,14,0,17.8,0,14,0
2003/3/2,8:45,12.6,0,64,0,18.4,0,70.7,0,14.1,0,17.8,0,14.1,0
2003/3/2,9:00,13.2,0,59,0,18.4,0,70.3,0,14,0,17.8,0,14.1,0
2003/3/2,9:15,14.9,0,61,0,18.3,0,63,0,12.7,0,17.5,0,14.3,0
2003/3/2,9:30,15.5,0,51,0,17.7,0,45.3,0,12.8,0,16.9,0,14.5,0
2003/3/2,9:45,16,0,44,0,18,0,43.3,0,13,0,17,0,14.6,0
2003/3/2,10:00,16.6,0,44,0,18.5,0,47.8,0,13.2,0,17.7,0,14.7,0
2003/3/2,10:15,18.1,0,40,0,18.6,0,45.9,0,13.3,0,17.9,0,14.8,0
2003/3/2,10:30,18.7,0,40,0,18.4,0,44.4,0,13.5,0,17.5,0,14.9,0
2003/3/2,10:45,19.4,0,38,0,18.3,0,43.9,0,13.3,0,17.3,0,15.4,0
2003/3/2,11:00,20,0,35,0,18.4,0,44.5,0,13.6,0,17.2,0,15.5,0
2003/3/2,11:15,20.4,0,34,0,18.6,0,43.3,0,13.7,0,17.3,0,15.5,0
2003/3/2,11:30,20.4,0,35,0,18.6,0,44.8,0,13.9,0,17.3,0,15.6,0
2003/3/2,11:45,20.7,0,36,0,18.4,0,47,0,14,0,17.3,0,15.6,0
2003/3/2,12:00,20.9,0,35,0,18.5,0,46.2,0,14.1,0,17.4,0,15.5,0
2003/3/2,12:15,21.4,0,33,0,18.5,0,46.2,0,14.2,0,17.5,0,15.5,0
2003/3/2,12:30,21.8,0,32,0,18.5,0,46.4,0,14.3,0,17.5,0,15.5,0
2003/3/2,12:45,21.7,0,31,0,18.5,0,45.5,0,14.3,0,17.6,0,15.5,0
2003/3/2,13:00,22,0,30,0,18.6,0,45,0,14.4,0,17.6,0,15.5,0
2003/3/2,13:15,21.3,0,32,0,18.5,0,44.9,0,14.5,0,17.7,0,15.4,0
2003/3/2,13:30,20,0,32,0,18.5,0,44.7,0,14.5,0,17.7,0,15.4,0
2003/3/2,13:45,20.6,0,34,0,18.5,0,44.3,0,14.6,0,17.6,0,15.4,0
2003/3/2,14:00,20.1,0,36,0,18.5,0,44.6,0,14.7,0,17.6,0,15.4,0
2003/3/2,14:15,20.1,0,36,0,18.5,0,46.7,0,12.5,0,17.7,0,15.4,0
2003/3/2,14:30,19.3,0,38,0,18.4,0,46.3,0,12.6,0,17.5,0,15.4,0
2003/3/2,14:45,19.4,0,37,0,18.4,0,47,0,12.8,0,17.4,0,15.4,0
2003/3/2,15:00,19,0,39,0,18.4,0,47.1,0,13,0,17.4,0,15.5,0
2003/3/2,15:15,17.9,0,41,0,18.2,0,46.4,0,13.2,0,17.3,0,15.5,0
2003/3/2,15:30,17.5,0,43,0,18.1,0,46.7,0,13.4,0,17.2,0,15.5,0
2003/3/2,15:45,18.5,0,43,0,18.1,0,47.8,0,13.5,0,17.2,0,15.6,0
2003/3/2,16:00,18.2,0,44,0,18,0,48.6,0,13.7,0,17.2,0,15.6,0
2003/3/2,16:15,18.4,0,44,0,17.9,0,48.7,0,13.8,0,17.2,0,15.7,0
2003/3/2,16:30,18.4,0,44,0,17.9,0,49,0,12.4,0,17.2,0,15.7,0
2003/3/2,16:45,17.9,0,47,0,17.8,0,49.9,0,12.7,0,17.2,0,15.8,0
2003/3/2,17:00,17.8,0,48,0,17.8,0,50.7,0,12.9,0,17.2,0,15.8,0
2003/3/2,17:15,16.7,0,50,0,18,0,53.3,0,13,0,17.2,0,15.9,0
2003/3/2,17:30,15.5,0,51,0,18.1,0,53.8,0,13.2,0,17.3,0,15.9,0
2003/3/2,17:45,15.1,0,52,0,18,0,52.2,0,13.4,0,17.4,0,15.9,0
2003/3/2,18:00,14.8,0,53,0,17.9,0,52.3,0,13.5,0,17.4,0,16,0
2003/3/2,18:15,14.4,0,48,0,18.1,0,51.6,0,13.7,0,17.4,0,16,0
2003/3/2,18:30,14.1,0,47,0,18.4,0,55.5,0,13.9,0,17.7,0,16,0
2003/3/2,18:45,13.9,0,47,0,18.5,0,52.3,0,13.4,0,17.9,0,16,0
2003/3/2,19:00,13.6,0,47,0,18.7,0,54.7,0,13.6,0,18.1,0,16,0
2003/3/2,19:15,13.2,0,50,0,18.8,0,50.9,0,13.8,0,18.2,0,16,0
2003/3/2,19:30,13,0,52,0,18.8,0,50.4,0,13.5,0,18.3,0,15.9,0
2003/3/2,19:45,12.8,0,51,0,18.8,0,50.8,0,13.3,0,18.2,0,15.9,0
2003/3/2,20:00,12.6,0,53,0,18.7,0,49.8,0,13.6,0,18,0,15.9,0
2003/3/2,20:15,12.5,0,54,0,19,0,54.1,0,13.7,0,18.2,0,15.9,0
2003/3/2,20:30,12.4,0,53,0,19.7,0,54.7,0,13.9,0,18.9,0,15.9,0
2003/3/2,20:45,12.4,0,55,0,19.9,0,53.7,0,14,0,19.4,0,15.9,0
2003/3/2,21:00,11.4,0,61,0,19.8,0,55.2,0,14.1,0,19.3,0,15.9,0
2003/3/2,21:15,11.3,0,63,0,19.9,0,54.4,0,14.2,0,19.4,0,15.9,0
2003/3/2,21:30,11.6,0,58,0,20,0,53.3,0,12.8,0,19.3,0,15.9,0
2003/3/2,21:45,11.7,0,54,0,20,0,52.7,0,13,0,19.3,0,16,0
2003/3/2,22:00,11.7,0,51,0,20,0,52.5,0,13.2,0,19.3,0,16,0
2003/3/2,22:15,11.5,0,50,0,20,0,53,0,13.4,0,19.3,0,16.1,0
2003/3/2,22:30,11.7,0,49,0,19.9,0,52.4,0,13.5,0,19.3,0,16.1,0
2003/3/2,22:45,10.4,0,60,0,19.8,0,52,0,13.6,0,19.2,0,16,0
2003/3/2,23:00,10.3,0,57,0,19.7,0,51.9,0,13.8,0,19.2,0,16,0
2003/3/2,23:15,11.7,0,54,0,19.6,0,51.7,0,13.9,0,19.2,0,16,0
2003/3/2,23:30,12,0,55,0,19.6,0,51.4,0,14,0,19.1,0,16,0
2003/3/2,23:45,11.2,0,54,0,19.5,0,51.1,0,14.1,0,19.1,0,16,0
2003/3/3,0:00,11.5,0,55,0,19.4,0,50.8,0,14.2,0,19,0,16,0
2003/3/3,0:15,12.7,0,60,0,19.4,0,50.8,0,14.3,0,19,0,16,0
2003/3/3,0:30,12.9,0,60,0,19.3,0,50.8,0,14.4,0,18.9,0,16,0
2003/3/3,0:45,12.9,0,61,0,19.2,0,50.9,0,14.4,0,18.9,0,16,0
2003/3/3,1:00,12.6,0,65,0,19.2,0,51.1,0,14.5,0,18.8,0,16,0
2003/3/3,1:15,12.5,0,64,0,19.1,0,51.3,0,14.6,0,18.8,0,16,0
2003/3/3,1:30,12.5,0,64,0,19.1,0,51.2,0,14.7,0,18.7,0,16,0
2003/3/3,1:45,12.5,0,63,0,19,0,51.5,0,14.8,0,18.7,0,16,0
2003/3/3,2:00,12.5,0,64,0,19,0,51.6,0,14.9,0,18.6,0,16,0
2003/3/3,2:15,12.3,0,67,0,18.9,0,51.7,0,14.9,0,18.6,0,16,0
2003/3/3,2:30,12.2,0,69,0,18.9,0,51.9,0,15,0,18.6,0,16,0
2003/3/3,2:45,12.2,0,70,0,18.8,0,52,0,15.1,0,18.5,0,15.9,0
2003/3/3,3:00,12.2,0,71,0,18.8,0,51.9,0,15.2,0,18.5,0,15.9,0
2003/3/3,3:15,12.3,0,72,0,18.7,0,52.1,0,15.3,0,18.4,0,15.9,0
2003/3/3,3:30,12.2,0,74,0,18.7,0,52,0,15.3,0,18.4,0,15.9,0
2003/3/3,3:45,11.9,0,81,0,18.6,0,52.1,0,15.4,0,18.4,0,15.8,0
2003/3/3,4:00,12.1,0,84,0,18.6,0,52.3,0,15.5,0,18.3,0,15.8,0
2003/3/3,4:15,11.9,0,84,0,18.6,0,52.4,0,15.6,0,18.3,0,15.8,0
2003/3/3,4:30,12.2,0,84,0,18.5,0,52.7,0,15.7,0,18.3,0,15.8,0
2003/3/3,4:45,12.1,0,83,0,18.5,0,52.9,0,15.7,0,18.2,0,15.8,0
2003/3/3,5:00,12,0,84,0,18.5,0,53.3,0,15.8,0,18.2,0,15.8,0
2003/3/3,5:15,12.3,0,87,0,18.5,0,53.5,0,15.9,0,18.2,0,15.8,0
2003/3/3,5:30,12.9,0,85,0,18.4,0,53.6,0,15.9,0,18.2,0,15.8,0
2003/3/3,5:45,12.7,0,86,0,18.4,0,53.6,0,16,0,18.1,0,15.8,0
2003/3/3,6:00,12.7,0,87,0,18.4,0,53.8,0,16.1,0,18.1,0,15.8,0
2003/3/3,6:15,13,0,87,0,18.5,0,55.4,0,13.5,0,18.1,0,15.8,0
2003/3/3,6:30,13,0,89,0,18.6,0,57.3,0,13.2,0,18.3,0,15.7,0
2003/3/3,6:45,13.1,0,89,0,18.7,0,60.7,0,13.3,0,18.3,0,15.7,0
2003/3/3,7:00,13.1,0,89,0,18.7,0,60.6,0,13.5,0,18.4,0,15.7,0
2003/3/3,7:15,13.1,0,91,0,18.7,0,60.4,0,13.7,0,18.4,0,15.7,0
2003/3/3,7:30,13,0,95,0,18.8,0,61.7,0,13.9,0,18.3,0,15.6,0
2003/3/3,7:45,13.4,0,99,0,18.8,0,62,0,14,0,18.4,0,15.6,0
2003/3/3,8:00,14.1,0,99,0,18.8,0,64.4,0,13.1,0,18.4,0,15.6,0
2003/3/3,8:15,13.9,0,99,0,18.9,0,66.4,0,13.3,0,18.5,0,15.6,0
2003/3/3,8:30,14,0,99,0,18.7,0,66.7,0,13.5,0,18.2,0,15.6,0
2003/3/3,8:45,14,0,99,0,18.5,0,65.6,0,12.7,0,18.1,0,15.6,0
2003/3/3,9:00,13.8,0,99,0,18.5,0,66.8,0,13.1,0,18,0,15.6,0
2003/3/3,9:15,13.6,0,99,0,18.5,0,67.9,0,13.3,0,18,0,15.6,0
2003/3/3,9:30,13.5,0,99,0,18.4,0,69.6,0,13.4,0,17.9,0,15.7,0
2003/3/3,9:45,13.4,0,99,0,18.3,0,68.5,0,13.6,0,17.8,0,15.8,0
2003/3/3,10:00,13.2,0,99,0,18.3,0,68.8,0,13.8,0,17.7,0,15.8,0
2003/3/3,10:15,13.2,0,98,0,18.1,0,70.4,0,13.9,0,17.6,0,15.9,0
2003/3/3,10:30,13,0,97,0,18.1,0,70.2,0,14,0,17.6,0,15.9,0
2003/3/3,10:45,12.7,0,95,0,18.1,0,69.4,0,12.9,0,17.5,0,15.9,0
2003/3/3,11:00,12.4,0,96,0,18.1,0,69.9,0,13.2,0,17.6,0,15.9,0
2003/3/3,11:15,12.2,0,97,0,18.1,0,70,0,13.4,0,17.6,0,16,0
2003/3/3,11:30,12.3,0,95,0,18.1,0,69.7,0,13.5,0,17.5,0,16,0
2003/3/3,11:45,12.1,0,90,0,18.1,0,69.5,0,13.7,0,17.5,0,15.9,0
2003/3/3,12:00,12.1,0,82,0,18.1,0,69.4,0,13.9,0,17.5,0,15.9,0
2003/3/3,12:15,12.3,0,80,0,18,0,69.5,0,14,0,17.5,0,15.9,0
2003/3/3,12:30,12.8,0,78,0,18.1,0,69.1,0,14.1,0,17.5,0,15.9,0
2003/3/3,12:45,13.5,0,73,0,18.1,0,69.1,0,14.3,0,17.4,0,15.9,0
2003/3/3,13:00,13.9,0,70,0,18.1,0,69,0,14.4,0,17.4,0,15.9,0
2003/3/3,13:15,15.8,0,56,0,18.1,0,68.6,0,14.5,0,17.4,0,15.9,0
2003/3/3,13:30,16.2,0,53,0,18.2,0,68.1,0,14.6,0,17.4,0,15.9,0
2003/3/3,13:45,16.5,0,52,0,18.3,0,69,0,13,0,17.6,0,16,0
2003/3/3,14:00,14.5,0,55,0,18.6,0,71.5,0,13.2,0,17.9,0,16,0
2003/3/3,14:15,16.3,0,53,0,18.7,0,72.7,0,13.4,0,18.2,0,16,0
2003/3/3,14:30,16.2,0,47,0,18.9,0,72,0,13.6,0,18.3,0,16,0
2003/3/3,14:45,15,0,52,0,18.9,0,69.4,0,13.8,0,18.4,0,16,0
2003/3/3,15:00,14.3,0,51,0,19,0,66.7,0,13.9,0,18.4,0,16,0
2003/3/3,15:15,13.8,0,52,0,19,0,65.6,0,14.1,0,18.5,0,16,0
2003/3/3,15:30,13.7,0,53,0,19.1,0,64.6,0,14.2,0,18.5,0,16,0
2003/3/3,15:45,14.1,0,51,0,19.2,0,64.7,0,14.3,0,18.6,0,16,0
2003/3/3,16:00,13.6,0,53,0,19.3,0,64.6,0,14.4,0,18.7,0,16,0
2003/3/3,16:15,13.6,0,54,0,19.3,0,63.4,0,14.5,0,18.7,0,16,0
2003/3/3,16:30,13.1,0,55,0,19.3,0,62.5,0,14.7,0,18.8,0,16,0
2003/3/3,16:45,12.8,0,66,0,19.4,0,62.3,0,14.7,0,18.8,0,16,0
2003/3/3,17:00,12.4,0,68,0,19.5,0,62.7,0,13.3,0,18.9,0,16,0
2003/3/3,17:15,12.2,0,68,0,19.6,0,62.4,0,13.1,0,19,0,16,0
2003/3/3,17:30,12.1,0,68,0,19.7,0,61.3,0,13.3,0,19,0,16,0
2003/3/3,17:45,11.7,0,68,0,19.7,0,59.5,0,12.6,0,19.1,0,16,0
2003/3/3,18:00,11.4,0,68,0,19.7,0,56.4,0,12.9,0,19,0,16,0
2003/3/3,18:15,11.1,0,68,0,19.8,0,55.4,0,13.1,0,19.1,0,15.9,0
2003/3/3,18:30,11,0,68,0,19.8,0,54.4,0,13.3,0,19.2,0,15.9,0
2003/3/3,18:45,10.8,0,67,0,19.8,0,56.6,0,13.3,0,19.2,0,15.9,0
2003/3/3,19:00,10.8,0,67,0,19.7,0,57,0,13.6,0,19.3,0,15.8,0
2003/3/3,19:15,10.7,0,65,0,19.7,0,57,0,13.7,0,19.2,0,15.8,0
2003/3/3,19:30,10.1,0,70,0,19.7,0,57,0,13.2,0,19,0,15.8,0
2003/3/3,19:45,9.7,0,76,0,19.7,0,58.1,0,13.4,0,19,0,15.7,0
2003/3/3,20:00,9.4,0,77,0,19.7,0,57.6,0,13.6,0,19,0,15.7,0
2003/3/3,20:15,9.3,0,76,0,19.7,0,57.2,0,13.5,0,19,0,15.6,0
2003/3/3,20:30,9.2,0,77,0,20.1,0,59.2,0,13.7,0,19.3,0,15.6,0
2003/3/3,20:45,8.8,0,80,0,20.2,0,59.4,0,13,0,19.5,0,15.5,0
2003/3/3,21:00,8.9,0,82,0,20.1,0,59.4,0,13.2,0,19.4,0,15.5,0
2003/3/3,21:15,8.9,0,81,0,20.2,0,60.4,0,13.4,0,19.4,0,15.5,0
2003/3/3,21:30,8.7,0,77,0,20.2,0,60.6,0,13.5,0,19.5,0,15.5,0
2003/3/3,21:45,7.4,0,83,0,20.3,0,61,0,13.7,0,19.5,0,15.5,0
2003/3/3,22:00,7.1,0,87,0,20.3,0,60.7,0,13.8,0,19.5,0,15.4,0
2003/3/3,22:15,7.2,0,87,0,20.3,0,60.1,0,13.9,0,19.5,0,15.5,0
2003/3/3,22:30,7.2,0,85,0,20.3,0,60,0,14.1,0,19.5,0,15.4,0
2003/3/3,22:45,7,0,89,0,20.2,0,59.9,0,14.2,0,19.4,0,15.4,0
2003/3/3,23:00,7.1,0,88,0,20.3,0,60,0,14.3,0,19.4,0,15.4,0
2003/3/3,23:15,7.2,0,81,0,20.2,0,60,0,14.4,0,19.4,0,15.4,0
2003/3/3,23:30,6.7,0,86,0,20.2,0,59.8,0,14.5,0,19.4,0,15.4,0
2003/3/3,23:45,6.8,0,86,0,20.2,0,59.8,0,14.5,0,19.4,0,15.4,0
2003/3/4,0:00,7,0,82,0,20.2,0,59.7,0,14.6,0,19.4,0,15.4,0
2003/3/4,0:15,7,0,77,0,20.2,0,59.5,0,14.7,0,19.3,0,15.4,0
2003/3/4,0:30,7,0,77,0,20.1,0,57.1,0,13,0,19.2,0,15.4,0
2003/3/4,0:45,6.9,0,74,0,19.9,0,56.3,0,13.3,0,19.2,0,15.4,0
2003/3/4,1:00,6.8,0,80,0,19.8,0,56,0,13.4,0,19.2,0,15.5,0
2003/3/4,1:15,6.3,0,78,0,19.6,0,55.6,0,13.6,0,19.1,0,15.5,0
2003/3/4,1:30,6.2,0,74,0,19.5,0,55.5,0,13.7,0,19,0,15.4,0
2003/3/4,1:45,6.3,0,74,0,19.3,0,54.9,0,13.9,0,18.9,0,15.3,0
2003/3/4,2:00,6.4,0,69,0,19.2,0,54.6,0,14,0,18.8,0,15.3,0
2003/3/4,2:15,6.5,0,69,0,19,0,54.7,0,14.1,0,18.7,0,15.2,0
2003/3/4,2:30,6,0,76,0,18.9,0,54.8,0,14.2,0,18.6,0,15.1,0
2003/3/4,2:45,6.1,0,75,0,18.7,0,54.4,0,14.3,0,18.5,0,15.1,0
2003/3/4,3:00,6.2,0,72,0,18.6,0,54.2,0,14.4,0,18.4,0,15,0
2003/3/4,3:15,6.2,0,68,0,18.4,0,54.3,0,14.5,0,18.3,0,14.9,0
2003/3/4,3:30,6.2,0,72,0,18.3,0,54.5,0,14.6,0,18.2,0,14.9,0
2003/3/4,3:45,6,0,74,0,18.1,0,54.2,0,14.6,0,18.1,0,14.8,0
2003/3/4,4:00,5.9,0,74,0,18,0,54.5,0,14.7,0,18,0,14.8,0
2003/3/4,4:15,6.1,0,74,0,17.9,0,54.3,0,14.8,0,17.9,0,14.7,0
2003/3/4,4:30,6.1,0,70,0,17.7,0,54.4,0,14.9,0,17.8,0,14.7,0
2003/3/4,4:45,5.4,0,75,0,17.6,0,54.4,0,14.9,0,17.7,0,14.6,0
2003/3/4,5:00,5.5,0,73,0,17.5,0,54.5,0,15,0,17.6,0,14.5,0
2003/3/4,5:15,5.8,0,70,0,17.4,0,54.7,0,15.1,0,17.5,0,14.5,0
2003/3/4,5:30,5.1,0,80,0,17.3,0,54.4,0,15.1,0,17.4,0,14.4,0
2003/3/4,5:45,4.5,0,85,0,17.1,0,54.3,0,15.2,0,17.3,0,14.4,0
2003/3/4,6:00,4.8,0,83,0,17,0,54.5,0,15.3,0,17.2,0,14.3,0
2003/3/4,6:15,5.2,0,82,0,21.1,0,46.2,0,15.3,0,17.6,0,14.3,0
2003/3/4,6:30,5.3,0,75,0,18.8,0,54.9,0,15.4,0,18.4,0,14.2,0
2003/3/4,6:45,5.4,0,72,0,18.5,0,57.7,0,13.7,0,18.2,0,14.2,0
2003/3/4,7:00,5.5,0,66,0,18.6,0,61,0,13.8,0,18.3,0,14.1,0
2003/3/4,7:15,5.5,0,62,0,18.5,0,59.7,0,13.8,0,18.2,0,14.1,0
2003/3/4,7:30,5.8,0,59,0,18.5,0,57.3,0,13.9,0,18.1,0,14,0
2003/3/4,7:45,6.4,0,59,0,18.5,0,59.1,0,14,0,18.2,0,14,0
2003/3/4,8:00,6.2,0,60,0,18.5,0,61.2,0,14.1,0,18.2,0,13.9,0
2003/3/4,8:15,6.2,0,61,0,18.3,0,57.9,0,14.2,0,17.9,0,13.9,0
2003/3/4,8:30,6.5,0,61,0,18,0,59.3,0,14.4,0,17.6,0,13.9,0
2003/3/4,8:45,8.4,0,52,0,18.1,0,60.2,0,14.5,0,17.6,0,14,0
2003/3/4,9:00,6.7,0,59,0,17.8,0,60.9,0,14.6,0,17.4,0,14.1,0
2003/3/4,9:15,8.2,0,57,0,17.6,0,61.5,0,14.6,0,17.3,0,14.2,0
2003/3/4,9:30,8.7,0,48,0,17.7,0,60.5,0,14.7,0,17.3,0,14.2,0
2003/3/4,9:45,9.9,0,48,0,17.8,0,60.5,0,14.8,0,17.5,0,14.3,0
2003/3/4,10:00,9.9,0,41,0,17.9,0,59.9,0,14.9,0,17.5,0,14.3,0
2003/3/4,10:15,9.9,0,46,0,17.8,0,59.9,0,13.1,0,17.5,0,14.3,0
2003/3/4,10:30,11.3,0,40,0,17.9,0,59.2,0,13.3,0,17.6,0,14.4,0
2003/3/4,10:45,11.9,0,33,0,18,0,58.6,0,13.4,0,17.7,0,14.4,0
2003/3/4,11:00,13,0,35,0,18.1,0,58.3,0,13.6,0,17.7,0,14.4,0
2003/3/4,11:15,14.6,0,34,0,18.1,0,57.7,0,13.7,0,17.7,0,14.4,0
2003/3/4,11:30,10.9,0,39,0,18.1,0,56.8,0,13.9,0,17.7,0,14.4,0
2003/3/4,11:45,14.9,0,30,0,18.2,0,56.5,0,14,0,17.7,0,14.4,0
2003/3/4,12:00,13.4,0,30,0,18.3,0,55.6,0,14.1,0,17.8,0,14.4,0
2003/3/4,12:15,11.7,0,34,0,18.3,0,55.4,0,14.2,0,17.8,0,14.4,0
2003/3/4,12:30,12.3,0,32,0,18.4,0,54.3,0,14.3,0,17.9,0,14.4,0
2003/3/4,12:45,12.2,0,32,0,18.4,0,53.9,0,14.4,0,17.9,0,14.4,0
2003/3/4,13:00,13.4,0,30,0,18.5,0,52.9,0,14.5,0,17.9,0,14.4,0
2003/3/4,13:15,11.9,0,33,0,18.5,0,53.4,0,14.6,0,17.9,0,14.4,0
2003/3/4,13:30,12.6,0,29,0,18.5,0,52.5,0,14.7,0,18,0,14.4,0
2003/3/4,13:45,11.2,0,34,0,18.5,0,52.5,0,14.8,0,18,0,14.3,0
2003/3/4,14:00,11.7,0,34,0,18.5,0,52.2,0,14.9,0,18,0,14.4,0
2003/3/4,14:15,10.6,0,38,0,18.6,0,51.8,0,14.9,0,18,0,14.3,0
2003/3/4,14:30,10.6,0,40,0,18.5,0,51.7,0,15,0,18,0,14.3,0
2003/3/4,14:45,10.5,0,41,0,18.5,0,51.6,0,15.1,0,18,0,14.3,0
2003/3/4,15:00,10.4,0,40,0,18.5,0,50.9,0,15.2,0,18,0,14.3,0
2003/3/4,15:15,10,0,41,0,18.5,0,51.1,0,15.3,0,18,0,14.3,0
2003/3/4,15:30,9.5,0,47,0,18.5,0,51.3,0,15.4,0,18,0,14.3,0
2003/3/4,15:45,9.6,0,42,0,18.6,0,52.6,0,15.5,0,18,0,14.3,0
2003/3/4,16:00,9.4,0,48,0,18.5,0,51.2,0,12.2,0,17.9,0,14.3,0
2003/3/4,16:15,8.9,0,47,0,18.5,0,50.5,0,12.5,0,17.9,0,14.3,0
2003/3/4,16:30,8.9,0,48,0,18.4,0,52.7,0,12.7,0,18,0,14.3,0
2003/3/4,16:45,8.4,0,49,0,18.6,0,59.4,0,12.9,0,18.1,0,14.3,0
2003/3/4,17:00,8.5,0,48,0,18.3,0,54.4,0,12.1,0,17.9,0,14.3,0
2003/3/4,17:15,8.2,0,47,0,18.1,0,52.9,0,12.9,0,17.8,0,14.3,0
2003/3/4,17:30,7.8,0,48,0,18.1,0,50.7,0,13.1,0,17.8,0,14.2,0
2003/3/4,17:45,7.5,0,50,0,18,0,47.5,0,12.9,0,17.7,0,14.2,0
2003/3/4,18:00,7.2,0,50,0,17.8,0,46.7,0,12.5,0,17.5,0,14.2,0
2003/3/4,18:15,7.3,0,50,0,17.7,0,45.6,0,12.8,0,17.4,0,14.1,0
2003/3/4,18:30,6.9,0,51,0,17.5,0,47.3,0,13,0,17.3,0,14.1,0
2003/3/4,18:45,6.9,0,52,0,21.5,0,39.5,0,13.1,0,18.9,0,14.1,0
2003/3/4,19:00,6.6,0,53,0,22.1,0,38.7,0,13.3,0,19.6,0,14,0
2003/3/4,19:15,6.6,0,52,0,21.6,0,44.2,0,13.5,0,19.8,0,14,0
2003/3/4,19:30,6.5,0,52,0,22,0,46.4,0,13.6,0,20.1,0,13.9,0
2003/3/4,19:45,6.3,0,52,0,22.4,0,45.9,0,13.8,0,20.7,0,13.9,0
2003/3/4,20:00,6.2,0,53,0,22.6,0,42.8,0,13.9,0,21.1,0,13.9,0
2003/3/4,20:15,6.2,0,51,0,23.1,0,42.5,0,13.8,0,21.3,0,13.8,0
2003/3/4,20:30,6,0,51,0,23.2,0,43.3,0,14,0,21.6,0,13.8,0
2003/3/4,20:45,5.9,0,51,0,22,0,44.6,0,14.1,0,21,0,13.8,0
2003/3/4,21:00,5.8,0,51,0,21.9,0,48.3,0,14.2,0,21,0,13.8,0
2003/3/4,21:15,5.7,0,51,0,21.6,0,48.7,0,14.3,0,20.9,0,13.8,0
2003/3/4,21:30,5.8,0,51,0,21.3,0,47.2,0,14.4,0,20.5,0,13.8,0
2003/3/4,21:45,5.7,0,51,0,21.6,0,50.6,0,14.5,0,20.6,0,13.8,0
2003/3/4,22:00,5.5,0,52,0,20.9,0,48.9,0,14.6,0,19.9,0,13.9,0
2003/3/4,22:15,5.4,0,53,0,20.8,0,47.5,0,14.7,0,19.8,0,14.1,0
2003/3/4,22:30,5.2,0,54,0,20.1,0,49.8,0,14.8,0,19.3,0,14.3,0
2003/3/4,22:45,5,0,55,0,20,0,51.1,0,14.9,0,19.1,0,14.4,0
2003/3/4,23:00,4.9,0,55,0,20.2,0,51.9,0,12.8,0,19.3,0,14.4,0
2003/3/4,23:15,4.8,0,56,0,20,0,51.6,0,13,0,19.3,0,14.3,0
2003/3/4,23:30,4.8,0,56,0,19.7,0,51.2,0,13.1,0,19.2,0,14.2,0
2003/3/4,23:45,4.7,0,56,0,19.5,0,50.9,0,13.3,0,19.1,0,14.1,0
2003/3/5,0:00,4.6,0,55,0,19.4,0,51,0,13.4,0,19,0,14,0
2003/3/5,0:15,4.6,0,55,0,19.2,0,50.7,0,13.5,0,18.9,0,13.9,0
2003/3/5,0:30,4.4,0,57,0,19,0,50.7,0,13.7,0,18.7,0,13.9,0
2003/3/5,0:45,4.3,0,56,0,18.8,0,50.7,0,13.8,0,18.6,0,13.8,0
2003/3/5,1:00,4.3,0,57,0,18.7,0,50.5,0,13.9,0,18.5,0,13.7,0
2003/3/5,1:15,4.2,0,55,0,18.5,0,50.3,0,14,0,18.4,0,13.7,0
2003/3/5,1:30,4.3,0,55,0,18.3,0,50.2,0,14,0,18.3,0,13.6,0
2003/3/5,1:45,4.3,0,54,0,18.2,0,50.1,0,14.1,0,18.1,0,13.5,0